Regional Weather Roundup
Issued by NWS Goodland, KS

Home | Current Version | Previous Version | Text Only | Print | Product List | Glossary Off
Versions: 1 2 3 4 5 6 7 8 9 10 11 12 13 14 15 16 17 18 19 20 21 22 23 24 25 26 27 28 29 30 31 32 33 34 35 36 37 38 39 40 41 42 43 44 45 46 47 48 49 50

000
ASUS43 KGLD 060408
RWRGLD

GOODLAND FORECAST AREA HOURLY WEATHER ROUNDUP
NATIONAL WEATHER SERVICE GOODLAND KS
1000 PM MDT SUN JUL 05 2015

...OFFICIAL OBSERVATIONS...

CITY           SKY/WX    TMP DP  RH WIND       PRES   REMARKS
GOODLAND KS    LGT RAIN  70  64  81 NW21G31   29.90R
HILL CITY KS   MOCLDY    87  62  43 S16G24    29.80R
IMPERIAL NEB   CLOUDY    72  63  73 N25G36    29.86R
MCCOOK NEB     CLOUDY    77  63  61 NE13      29.80F
AKRON CO       MOCLDY    67  61  81 N21G28    30.00R
BURLINGTON CO  CLOUDY    73  61  65 N22G31    29.95R
LIMON CO       CLOUDY    68  56  65 N15       30.03R
$$

...UNOFFICIAL OBSERVATIONS...

CITY           SKY/WX    TMP DP  RH WIND       PRES   REMARKS
COLBY KS       CLEAR     86  63  45 S9        29.86R
GOVE KS          N/A     84  32  15 MISG        N/A
NORTON KS      CLEAR     88  55  33 S14G20    29.78R
SHARON SPRINGS   N/A     83  57  40 SE16        N/A
KIT CARSON CO    N/A     74  58  56 MISG        N/A
YUMA CO          N/A     70  59  67 N12G20      N/A
$$



USA.gov is the U.S. government's official web portal to all federal, state and local government web resources and services.